Tracking 35331 objects as of 17-Sep-2026
HD Live streaming from Space Station
objects crossing your sky now

COSMOS 29


COSMOS 29 is no longer on orbit


NORAD ID: 791
Int'l Code: 1964-021A
Launch date: April 25, 1964
Source: Commonwealth of Independent States (former USSR) (CIS)
Launch site: TYURATAM MISSILE AND SPACE COMPLEX (TTMTR)
Decay date: 1964-05-02
Your satellite tracking list
Your tracking list is empty




NASA's NSSDC Master Catalog

Two Line Element Set (TLE):
1 00791U 64021  A 64119.22272725  .00124594 +00000-0 +00000-0 0  9995
2 00791 065.0143 034.5382 0070018 021.9845 338.3143 16.09266794000452
Source of the keplerian elements: AFSPC